Location: Angel
(38.7209°N, 82.2693°W)
Time: 05:18:22
(UTC+00:00)

Tiangong - Visible Passes

Search period start: 28 November 2022 00:00
Search period end: 08 December 2022 00:00
Orbit: 386 x 393 km, 41.5° (Epoch: 27 November)

Date Brightness Start Highest point End Pass type
(mag) Time Alt. Az. Time Alt. Az. Time Alt. Az.
28 Nov 0.9 00:29:31 10° SW 00:30:06 14° SW 00:30:06 14° SW visible
28 Nov -0.7 23:31:54 10° SSW 23:34:37 26° SSE 23:34:59 25° SE visible
29 Nov 0.1 22:34:45 10° S 22:36:43 15° SE 22:38:42 10° ESE visible
30 Nov -0.5 00:10:07 10° WSW 00:12:06 35° WSW 00:12:06 35° WSW visible
30 Nov -1.6 23:12:10 10° SW 23:15:14 47° SSE 23:16:49 24° E visible
01 Dec 1.5 00:49:02 10° W 00:49:08 11° W 00:49:08 11° W visible
01 Dec -2.0 23:50:48 10° W 23:53:47 68° NW 23:53:47 68° NW visible
02 Dec -2.1 22:52:37 10° WSW 22:55:48 81° SSE 22:58:23 15° ENE visible
03 Dec 0.8 00:29:45 10° W 00:30:41 17° WNW 00:30:41 17° WNW visible
03 Dec -1.8 23:31:27 10° W 23:34:35 54° N 23:35:14 44° NE visible
04 Dec -2.0 22:33:07 10° W 22:36:16 68° NNW 22:39:28 10° ENE visible
05 Dec -0.2 00:10:19 10° WNW 00:12:03 28° WNW 00:12:03 28° WNW visible
05 Dec -1.7 23:11:58 10° WNW 23:15:04 48° N 23:16:34 25° ENE visible
06 Dec -1.7 23:50:40 10° WNW 23:53:23 53° NNW 23:53:23 53° NNW visible
07 Dec -1.8 22:52:17 10° WNW 22:55:25 51° N 22:57:57 14° E visible
